Regional Weather Roundup
Issued by NWS

Home | Current Version | Previous Version | Graphics & Text | Print | Product List | Glossary On
Versions: 1 2 3 4 5 6 7 8 9 10 11 12 13 14 15 16 17 18 19 20 21 22 23 24 25 26 27 28 29 30 31 32 33 34 35 36 37 38 39 40 41 42 43 44 45 46 47 48 49 50
115
ASUS45 KABQ 120101
RWRNM
NEW MEXICO REGIONAL WEATHER ROUNDUP
NATIONAL WEATHER SERVICE ALBUQUERQUE NM
600 PM MST THU FEB 11 2016

NOTE: "FAIR" MEANS FEW OR NO CLOUDS BELOW 12,000 FEET AGL WITH NO
       SIGNIFICANT WEATHER OR OBSTRUCTIONS TO VISION.

      THIS PRODUCT IS RELEASED AS TWO VERSIONS.  ONE VERSION NEAR
      THE TOP OF THE HOUR CONTAINING PRELIMINARY DATA FROM ALBUQUERQUE
      AND OTHER STATIONS.  A FINAL VERSION WITH ADDITIONAL DATA IS
      ISSUED ABOUT 10 MINUTES AFTER THE HOUR.

NMZ501-503-504-510>518-120200-
NORTHWEST PLATEAU/NORTHCENTRAL MOUNTAINS

CITY           SKY/WX    TMP DP  RH WIND       PRES   REMARKS
FARMINGTON     CLOUDY    46  22  38 W13       30.32R
SANTA FE       CLEAR     52  15  23 W5        30.29R
TAOS           CLOUDY    39  16  38 NW7       30.34R WCI  34

$$
NMZ402-403-502-505>509-120200-
WESTCENTRAL MOUNTAINS/SOUTHWEST MOUNTAINS

CITY           SKY/WX    TMP DP  RH WIND       PRES   REMARKS
GALLUP         PTCLDY    53  14  21 N7        30.36R
GRANTS         PTCLDY    45   6  20 NW12G17   30.37R
SILVER CITY      N/A     61   9  12 W7        30.29R

$$
NMZ407-409-411-412-120200-
SOUTHERN DESERTS

CITY           SKY/WX    TMP DP  RH WIND       PRES   REMARKS
DEMING         CLEAR     67  12  12 S3        30.23R
ALAMOGORDO     CLEAR     63   9  12 NW8       30.22R
T OR C         PTCLDY    65  10  11 SE3       30.25R

$$
NMZ519>523-120200-
CENTRAL VALLEYS/CENTRAL HIGHLANDS

CITY           SKY/WX    TMP DP  RH WIND       PRES   REMARKS
ALBUQUERQUE    PTCLDY    62  12  14 NW13      30.28R
DOUBLE EAGLE   PTCLDY    54  12  19 NW12      30.30R
MORIARTY ARPT  FAIR      50  11  21 NW9       30.31R
CLINES CORNERS CLEAR     45  21  38 NW17      30.29R
BELEN          FAIR      58  12  16 CALM      30.28R
SOCORRO        NOT AVBL

$$
NMZ524>526-539-540-120200-
SOUTHCENTRAL MOUNTAINS

CITY           SKY/WX    TMP DP  RH WIND       PRES   REMARKS
RUIDOSO          N/A     54   0  11 W7        30.34R

$$
NMZ527>531-120200-
NORTHEAST HIGHLANDS/NORTHEAST PLAINS

CITY           SKY/WX    TMP DP  RH WIND       PRES   REMARKS
LAS VEGAS      CLEAR     50   8  18 N9        30.26R
RATON          CLEAR     47  13  25 N10       30.21R
CLAYTON        CLEAR     52  13  21 SW8       30.16R

$$
NMZ532>537-120200-
EASTCENTRAL PLAINS

CITY           SKY/WX    TMP DP  RH WIND       PRES   REMARKS
TUCUMCARI      CLOUDY    57  13  17 S7        30.14R
CANNON AFB     NOT AVBL
CLOVIS AIRPORT CLEAR     54  18  24 SE6       30.20R

$$
NMZ028-029-538-120200-
SOUTHEAST PLAINS

CITY           SKY/WX    TMP DP  RH WIND       PRES   REMARKS
ROSWELL        CLEAR     61  16  17 S5        30.17R
ARTESIA        CLEAR     63  21  20 CALM      30.18R
CARLSBAD       CLEAR     63  21  20 CALM      30.16R
HOBBS          CLEAR     59  21  23 NE6       30.19R


$$




USA.gov is the U.S. government's official web portal to all federal, state and local government web resources and services.